GEFSNGP_500_meanwind_090.txt.gz
Wind_Speed
31 30 31 31 30 31 34 37 41 40 40 41 43 45 46 47 49 51 52 53 54 55 56 57 58 59 60 61 62 62 63 63 63 63 62 61 60 60 60 60 60 61 61 61
30 29 32 31 30 32 35 37 40 42 42 45 48 48 49 51 53 55 56 57 58 60 61 62 62 63 63 64 64 64 64 64 63 62 61 60 59 59 59 59 60 60 60 61
31 31 32 31 32 34 37 39 42 45 46 49 50 52 53 55 57 59 60 61 63 64 65 66 67 67 67 67 66 66 65 64 63 61 60 60 59 59 59 60 60 60 61 61
34 34 35 34 37 40 42 43 46 48 50 52 53 55 57 59 61 63 64 66 67 68 69 69 69 69 69 69 68 66 65 64 62 61 60 60 59 59 60 60 61 60 60 60
37 40 41 39 42 45 48 49 51 53 54 56 58 59 61 63 66 67 69 70 71 72 72 72 71 71 70 69 68 66 65 64 62 61 61 60 60 60 60 60 59 59 58 58
40 44 45 45 48 50 53 55 56 57 59 61 63 65 65 68 70 72 73 73 74 74 74 73 73 72 70 68 66 65 64 63 62 61 60 60 59 59 58 58 58 57 57 57
42 46 49 51 53 54 57 59 61 62 64 67 69 70 72 73 74 75 76 76 76 75 75 73 72 71 69 67 65 64 63 61 60 59 59 58 57 57 57 56 56 55 55 54
47 49 51 54 56 58 61 63 64 66 68 70 72 73 74 75 76 77 77 76 76 75 73 71 70 69 66 65 63 62 61 59 58 58 57 57 56 55 54 54 53 53 52 51
51 53 54 57 60 62 64 66 68 70 71 73 74 76 77 78 78 77 77 75 74 73 71 68 67 66 64 63 61 60 59 58 57 56 56 55 55 53 53 52 52 50 49 48
54 55 57 60 62 64 66 68 70 72 74 75 77 78 78 78 77 76 75 73 71 70 68 65 63 62 62 61 60 58 57 56 55 54 53 53 52 52 51 51 49 48 47 46
57 59 61 63 65 67 69 71 73 74 76 77 78 78 78 77 75 73 72 70 68 67 65 63 61 60 60 59 58 57 55 54 53 52 51 50 50 49 49 48 47 46 45 45
60 62 64 66 68 70 71 72 74 76 77 77 77 76 75 74 72 70 68 66 65 63 62 61 59 58 57 56 56 54 53 51 50 49 49 48 47 46 45 45 45 45 45 45
63 65 67 68 70 72 73 74 75 76 77 76 74 73 72 70 67 65 64 63 61 60 59 58 57 56 55 54 53 52 52 50 48 47 46 46 45 44 43 43 43 43 44 44
66 67 68 70 71 72 73 74 74 74 73 72 71 69 67 65 64 62 60 59 58 57 57 56 55 54 53 52 51 50 49 48 47 45 45 45 44 43 43 42 41 41 42 43
67 68 69 70 70 71 72 72 71 70 68 67 66 64 63 62 60 58 57 57 56 56 55 54 53 51 50 50 49 48 47 46 45 44 44 43 42 41 41 41 41 41 41 41
67 67 68 68 69 69 69 68 67 66 65 63 61 60 59 58 57 56 55 56 56 55 53 52 50 49 48 48 47 46 44 44 43 43 42 41 40 40 40 40 40 40 38 37
65 65 66 66 66 66 65 64 64 63 61 59 59 57 56 56 55 54 54 53 53 52 51 50 48 47 47 46 45 44 43 42 42 41 40 40 39 39 39 39 38 37 35 35
65 65 65 65 65 64 62 61 61 59 58 57 56 55 55 55 55 54 53 52 51 49 48 47 45 45 45 44 43 42 41 41 40 39 38 38 39 38 38 37 36 35 34 34
63 63 63 62 62 62 60 59 58 57 56 56 56 55 54 54 54 53 52 51 50 47 43 42 42 42 41 41 40 40 39 39 38 37 37 37 37 36 36 35 34 33 33 32
61 61 60 60 59 59 58 57 56 55 55 55 55 54 53 52 52 50 49 47 46 44 41 40 39 39 39 38 38 37 37 37 36 36 36 36 35 34 33 32 32 31 30 29
60 59 58 57 57 56 56 55 55 53 53 53 53 53 52 50 49 48 47 44 42 41 40 39 39 38 37 36 36 36 36 36 35 34 34 34 34 33 32 31 30 29 28 27
58 57 56 56 55 53 53 53 53 52 52 52 51 51 50 49 47 45 44 43 41 39 38 38 38 37 35 34 33 34 34 34 33 33 33 33 32 31 30 29 28 27 26 25
57 56 55 54 53 52 51 51 51 51 50 50 50 49 49 47 46 44 41 40 39 38 37 36 35 34 33 32 32 32 32 32 31 32 31 31 30 29 28 27 26 25 24 24
56 55 53 52 52 51 50 49 49 48 48 48 48 48 47 45 43 42 41 39 37 36 35 34 33 32 31 30 30 30 30 30 30 30 30 30 29 27 26 25 24 23 23 23
54 53 51 51 50 50 49 48 46 46 46 45 44 44 43 43 42 40 38 36 35 34 33 32 31 29 29 28 29 29 29 28 29 29 29 28 27 26 24 23 22 22 22 22
51 50 49 49 48 47 46 45 45 44 43 42 41 40 40 39 38 37 35 33 32 31 30 29 28 28 27 27 28 28 27 27 28 28 27 27 26 24 22 21 21 21 21 21
48 48 47 46 45 45 44 43 43 42 41 40 39 37 36 36 34 33 32 30 29 28 27 27 26 26 26 26 26 26 27 27 27 26 25 25 23 22 21 20 20 19 19 19

GEFSNGP_500_meanwind_096.txt.gz
Wind_Speed
26 28 29 27 25 27 29 30 32 31 32 34 37 39 41 44 47 49 51 54 57 60 62 65 67 69 71 73 74 75 75 76 76 76 76 76 75 74 73 72 71 70 70 69
28 29 30 27 26 28 29 31 33 35 36 38 41 43 46 48 51 53 56 58 62 64 67 69 72 74 75 76 77 78 78 78 78 77 76 75 73 72 71 70 69 68 67 66
30 29 30 28 28 30 31 33 35 37 39 42 44 47 50 52 55 58 61 63 66 69 71 73 75 77 79 79 80 80 79 79 78 76 74 72 71 70 68 67 67 66 65 64
33 31 30 29 31 32 34 36 38 41 43 46 48 51 54 57 59 62 65 68 70 73 75 77 79 80 81 81 81 80 79 77 75 73 71 69 68 66 66 65 63 63 61 60
35 34 32 30 34 36 38 40 41 44 46 49 52 55 57 60 63 66 69 71 74 76 79 80 82 82 82 81 79 78 75 73 70 69 67 65 63 62 61 60 59 59 57 57
36 37 37 36 38 39 42 43 45 48 50 53 56 59 60 63 67 69 72 75 77 79 81 82 82 82 80 78 76 74 71 69 66 64 62 60 59 58 58 57 56 55 53 53
36 39 40 41 42 43 45 48 50 52 55 58 60 63 66 68 71 73 76 78 80 81 81 81 80 79 77 74 72 70 67 64 62 59 58 57 56 55 55 54 53 51 50 50
38 40 42 43 45 46 49 51 54 56 59 62 64 67 69 71 73 75 77 79 80 81 80 78 76 75 73 70 68 65 63 60 57 56 55 54 54 53 52 51 49 48 47 47
40 42 44 46 47 49 52 55 57 60 63 65 67 69 72 73 75 77 78 79 80 79 77 74 72 71 69 66 64 61 59 56 55 53 52 52 52 50 49 47 46 45 45 44
43 44 46 48 50 52 55 58 61 63 65 68 70 72 73 75 76 77 78 78 77 76 74 70 68 66 65 63 61 59 57 55 53 52 51 50 49 47 46 45 44 43 42 42
45 46 49 50 53 55 58 60 63 65 67 69 72 73 75 76 77 77 76 75 74 72 70 68 65 63 61 60 59 57 55 53 51 49 48 46 45 44 43 42 42 42 41 41
47 48 51 53 55 57 60 62 64 67 69 70 72 74 75 76 76 75 74 72 70 69 67 65 63 60 58 58 57 55 53 50 48 46 45 44 42 41 41 41 40 40 41 40
50 51 53 55 58 60 62 64 66 68 70 72 73 74 74 74 73 72 70 69 68 66 65 63 60 58 56 55 54 52 50 48 46 45 44 43 42 41 39 38 38 39 39 38
52 54 55 57 59 62 64 66 68 69 70 71 72 73 73 72 71 69 67 66 65 64 62 61 58 56 54 53 51 49 48 46 45 44 43 42 41 40 39 37 36 36 36 36
54 56 58 60 62 64 66 67 68 69 70 70 70 71 71 70 68 66 65 64 63 61 60 59 56 54 52 51 49 47 45 43 42 42 41 40 39 38 38 37 37 36 34 34
56 57 59 61 63 65 66 67 68 69 69 69 69 68 68 67 66 64 63 63 61 59 58 56 53 51 50 49 46 44 43 42 41 41 40 39 38 37 36 36 36 35 33 32
57 58 60 62 64 65 66 67 67 68 68 68 68 67 66 65 63 62 61 60 59 57 56 54 51 49 48 47 45 43 41 40 40 39 38 37 37 36 35 35 35 33 32 31
59 61 62 64 65 65 65 66 66 67 67 67 66 65 64 64 63 61 60 58 55 53 52 51 49 48 47 45 43 41 40 39 38 37 36 36 36 35 34 34 34 32 30 29
60 62 63 63 64 65 66 66 66 66 66 66 66 64 63 62 62 60 58 56 53 51 49 48 47 46 44 43 41 39 38 36 36 35 35 34 34 34 33 33 31 30 28 27
61 62 63 64 64 65 66 66 66 66 65 65 64 63 61 60 59 57 54 52 51 50 47 46 44 43 41 40 38 36 35 34 33 33 32 32 32 32 31 31 30 28 28 27
62 63 64 65 65 65 66 66 66 65 64 63 63 61 59 57 55 53 51 49 47 46 44 43 42 40 38 37 35 33 33 32 32 31 31 31 31 30 30 29 28 27 27 27
64 64 65 65 65 65 65 65 65 64 63 61 60 58 56 53 51 49 47 46 44 43 42 40 39 37 35 34 32 31 31 31 30 30 30 30 29 29 29 28 27 26 26 26
64 65 65 65 65 65 64 63 63 62 60 58 56 54 52 50 48 46 43 42 42 40 39 38 37 34 32 31 31 30 30 30 30 29 29 29 28 28 28 27 26 25 25 25
64 64 64 64 64 63 62 61 59 57 55 53 52 50 49 47 44 43 42 41 40 39 38 36 34 32 30 30 30 30 29 29 28 28 28 27 27 27 26 25 24 24 24 24
63 63 63 63 62 61 60 58 55 53 51 49 47 46 46 45 43 41 39 39 38 37 35 33 31 29 29 29 29 28 28 27 27 27 26 26 25 25 24 24 23 23 23 23
62 62 62 61 60 59 57 54 52 50 48 46 44 43 43 41 40 39 38 37 36 35 33 30 29 28 28 28 28 27 26 26 25 25 25 24 24 24 23 22 22 22 21 21
61 60 59 58 56 54 53 51 49 47 45 44 42 40 39 38 37 37 36 35 34 33 31 29 27 27 27 27 26 25 25 24 24 24 23 23 23 22 21 21 20 20 19 19

GEFSNGP_500_meanwind_102.txt.gz
Wind_Speed
29 30 31 31 31 34 35 36 37 35 35 35 37 39 40 42 44 46 49 51 53 56 59 61 63 66 68 71 73 76 78 80 82 83 84 84 83 83 82 81 81 80 78 76
30 32 34 34 33 35 36 37 37 38 37 38 39 40 43 45 47 50 52 54 57 60 62 65 67 70 72 74 76 79 81 82 83 83 83 83 82 82 81 79 77 75 73 71
33 33 36 35 34 35 36 37 38 38 39 39 41 43 46 48 50 52 55 57 60 63 66 68 71 73 75 77 79 81 82 83 83 83 82 82 81 80 77 75 72 70 67 65
37 36 37 36 35 35 37 37 38 39 40 42 44 46 49 51 53 55 58 61 63 66 69 71 74 75 77 79 80 82 82 82 82 82 82 80 78 75 72 69 67 64 61 59
39 39 39 36 36 37 38 39 38 40 42 44 46 48 51 54 56 59 61 64 67 70 72 74 75 77 79 80 82 82 82 82 81 81 79 76 73 69 67 64 61 59 57 55
40 42 41 38 37 38 40 41 40 42 44 46 49 51 53 56 58 61 64 67 70 72 74 75 77 79 80 82 83 83 82 81 79 77 75 72 68 65 63 60 57 55 53 51
40 42 41 40 41 41 42 43 44 45 47 49 52 54 56 58 61 64 67 70 72 74 75 77 79 80 82 82 82 82 80 78 76 73 70 67 65 62 60 57 54 52 51 49
40 41 42 42 43 43 44 45 47 48 50 53 55 57 59 62 65 68 70 72 74 75 76 78 80 81 82 81 81 79 77 75 71 68 65 63 61 59 56 54 52 50 48 46
41 41 42 43 44 45 47 48 49 51 54 56 58 60 63 65 68 70 72 73 75 76 77 78 80 81 81 80 79 77 74 70 67 64 62 60 58 56 53 51 50 48 46 44
41 42 44 45 46 48 49 50 52 54 57 59 61 63 66 68 70 71 73 74 76 78 79 79 79 79 79 78 77 74 71 67 64 61 58 56 54 52 51 49 48 46 44 43
43 44 45 47 48 49 51 53 55 57 59 61 63 66 68 70 71 73 74 76 77 79 80 79 79 78 76 75 74 71 67 64 61 59 56 53 50 49 48 46 46 45 44 43
44 45 47 48 50 51 53 55 57 59 61 63 66 68 70 71 72 74 76 77 78 79 79 78 77 75 74 73 71 69 65 62 59 56 53 51 48 45 45 45 44 43 43 43
46 47 48 50 51 53 55 57 59 61 63 65 67 69 71 72 73 75 76 78 78 78 78 77 75 73 71 70 68 65 62 59 56 53 51 49 47 44 42 40 40 40 41 41
47 48 50 51 53 55 57 59 61 63 65 67 69 71 72 74 75 76 77 77 78 77 76 75 73 71 69 67 65 62 58 55 53 51 48 46 44 43 41 39 37 36 38 39
47 49 51 53 55 57 59 61 63 65 67 68 70 71 73 75 75 76 76 77 77 76 74 72 70 68 66 65 62 58 55 52 49 47 45 43 42 41 40 38 37 37 36 36
50 52 54 55 57 59 61 63 65 66 68 70 71 72 74 75 75 76 76 76 75 73 72 70 68 66 64 62 58 54 50 48 46 45 43 41 40 39 38 36 36 36 36 35
52 54 55 56 58 60 63 65 66 68 69 71 72 73 74 75 75 75 74 73 72 71 70 68 66 63 60 57 53 50 47 44 44 43 41 39 38 37 36 35 35 35 34 34
54 55 57 59 61 63 64 66 68 69 71 72 73 74 74 75 75 74 73 72 70 68 67 65 62 59 55 52 49 46 44 43 41 40 38 36 36 35 35 35 34 34 33 33
55 57 58 60 62 64 66 67 69 71 72 73 74 74 74 75 74 73 72 70 68 65 62 60 57 54 50 48 46 44 42 41 39 37 36 35 35 35 34 34 34 33 32 31
57 58 60 62 64 66 67 69 70 71 72 74 74 74 74 74 73 72 69 67 65 63 60 56 53 49 46 44 42 41 40 38 37 35 34 34 34 33 33 33 33 32 31 30
58 60 62 64 65 67 69 70 72 72 73 74 74 74 74 72 71 69 66 63 60 58 55 52 49 46 43 41 40 39 37 36 35 33 32 32 32 32 32 32 32 31 29 29
60 62 64 65 67 68 70 71 72 73 74 74 73 73 72 70 67 65 62 61 57 54 51 48 46 43 40 38 37 36 34 34 33 32 31 31 31 30 30 30 30 29 28 28
62 64 66 67 69 70 71 72 73 73 73 72 71 70 69 67 64 62 58 55 53 50 47 44 42 39 37 36 34 33 32 32 31 31 30 29 29 29 29 29 29 28 28 27
64 65 67 69 71 71 72 72 72 71 71 70 68 67 66 63 60 57 55 52 48 46 44 41 38 36 35 33 32 31 31 30 30 29 28 28 27 28 28 28 28 28 27 26
66 68 69 70 71 71 72 71 70 69 68 66 65 63 62 60 57 53 50 47 45 43 40 37 36 34 33 31 31 30 30 29 29 28 27 27 26 27 27 28 28 27 27 26
67 69 69 70 71 71 70 70 68 66 65 63 61 59 57 55 52 49 46 44 42 40 37 35 33 32 31 30 30 29 28 28 27 26 25 25 25 25 26 27 27 27 25 24
67 68 69 69 68 68 68 67 65 64 62 60 57 54 52 50 47 45 43 41 39 37 35 33 31 30 29 29 28 27 27 26 25 24 24 24 24 24 25 26 26 25 24 23

GEFSNGP_500_meanwind_108.txt.gz
Wind_Speed
25 26 27 27 27 28 30 32 34 33 33 34 37 38 38 38 39 40 41 43 44 46 48 51 53 56 58 60 63 65 67 69 71 72 74 75 77 78 79 80 79 78 77 77
26 27 29 28 27 30 32 33 35 36 35 36 37 38 39 40 41 42 43 45 47 49 51 54 56 58 60 63 65 67 69 71 72 74 75 77 78 79 79 79 78 77 77 76
27 28 31 30 28 31 33 34 36 37 37 38 38 39 40 41 42 43 45 47 49 51 54 56 58 61 63 65 67 69 70 72 74 76 77 78 79 79 79 78 77 76 75 73
31 31 32 31 30 31 34 35 36 38 38 39 39 40 41 42 43 45 47 49 52 54 56 59 61 63 65 67 68 70 72 74 76 77 79 79 79 79 78 77 75 74 72 70
33 34 34 32 32 34 36 36 36 38 38 39 40 41 42 44 46 48 50 52 54 56 59 61 63 65 66 68 70 72 74 75 77 79 79 79 78 77 76 75 73 71 69 66
34 36 37 35 34 35 37 37 37 38 39 40 41 43 44 46 48 50 52 54 57 59 61 63 65 67 68 70 72 73 75 77 78 79 79 78 77 76 74 73 70 68 65 62
35 37 38 37 38 38 39 40 41 41 41 42 43 45 46 48 50 52 55 57 59 61 63 65 67 69 70 72 74 75 77 78 79 78 78 77 76 74 73 71 67 64 61 57
35 37 38 39 40 41 42 43 43 44 44 45 46 47 48 50 53 55 57 59 61 63 65 67 69 71 72 73 75 77 78 78 78 77 76 76 74 72 70 67 63 60 56 52
37 38 39 41 42 43 44 45 45 46 46 47 48 50 51 53 55 57 59 61 63 65 67 68 70 72 74 75 77 78 78 78 77 76 75 75 73 70 67 63 60 56 52 48
39 39 41 43 44 45 46 46 47 48 49 49 50 52 54 56 57 59 62 64 66 67 69 70 72 73 76 77 78 79 78 77 76 75 74 72 69 66 62 59 55 51 48 45
40 41 43 44 45 46 47 48 49 50 50 51 53 55 56 58 60 62 64 66 67 69 70 72 73 75 77 78 79 79 78 76 75 74 72 68 64 61 57 53 51 47 44 42
42 43 44 45 46 47 48 49 50 50 52 53 55 57 58 60 62 64 66 68 69 70 72 73 75 76 78 79 79 78 76 75 73 71 68 64 59 54 51 49 46 44 42 41
43 44 45 46 47 48 48 49 50 52 54 55 57 58 60 62 64 66 68 70 71 72 73 75 76 77 78 79 78 77 75 73 70 67 63 59 55 51 46 43 42 41 40 39
44 45 46 47 48 49 50 51 53 54 56 57 58 60 62 64 66 68 69 71 72 73 74 76 77 77 78 78 76 74 72 69 66 63 59 54 50 47 45 42 38 37 37 37
45 46 47 48 49 50 52 53 54 55 57 58 60 62 64 66 68 69 71 72 73 74 75 76 77 77 77 76 74 72 68 65 62 58 54 50 47 45 43 41 38 36 35 34
46 47 48 49 50 51 52 54 55 57 58 60 61 63 65 67 69 70 72 73 74 75 76 77 77 76 75 73 71 68 64 60 57 54 50 47 45 43 41 39 37 35 34 33
47 48 49 50 51 52 53 55 57 58 59 61 63 65 67 68 70 71 73 74 75 75 76 76 76 74 72 70 67 63 59 56 52 50 47 45 43 41 39 37 35 34 33 32
47 48 49 50 51 53 54 56 57 59 61 63 65 67 68 70 72 73 74 74 74 75 75 74 73 71 68 65 63 59 55 52 49 46 44 42 41 39 37 35 34 33 32 31
47 48 50 51 53 54 55 57 59 60 62 64 66 68 70 72 73 75 75 75 75 74 72 71 69 67 64 61 58 55 52 49 46 44 42 40 38 37 36 34 33 32 31 31
48 49 51 52 53 55 57 58 60 62 64 66 68 70 71 73 74 75 75 74 73 72 71 68 66 63 60 57 54 52 49 46 43 41 39 38 37 36 34 33 32 31 30 30
49 50 51 53 54 56 58 60 62 64 66 68 70 71 73 74 74 74 73 71 70 69 68 65 62 59 56 53 51 48 46 43 40 38 37 36 35 34 33 31 30 30 30 30
50 51 53 54 55 57 59 62 64 66 67 69 71 72 73 73 73 72 71 70 68 66 64 61 58 55 52 49 47 45 42 39 37 35 34 34 34 32 31 30 29 29 29 29
51 52 54 56 57 59 61 64 66 67 69 70 72 72 73 72 71 71 69 67 66 63 60 57 55 51 48 46 44 41 39 36 34 33 33 33 32 31 29 29 28 28 28 29
53 55 56 58 60 62 63 65 67 69 70 71 71 72 72 71 69 68 67 64 62 59 57 54 51 48 45 43 41 38 35 33 32 32 31 31 30 29 29 28 27 26 27 28
55 57 59 60 62 64 66 67 68 69 70 71 70 70 69 68 67 65 63 60 58 55 53 50 47 44 42 40 37 35 33 31 30 30 29 29 28 28 28 27 26 25 26 26
58 59 61 63 65 66 67 68 69 70 70 69 68 67 66 64 63 61 59 56 54 51 49 46 43 40 37 36 34 32 30 29 29 28 28 28 27 27 27 26 24 24 24 25
60 62 63 64 65 67 68 69 69 69 68 67 65 63 62 60 59 57 55 52 50 47 44 41 39 36 34 33 31 29 28 27 26 26 26 26 26 26 25 24 23 23 24 24

GEFSNGP_500_meanwind_114.txt.gz
Wind_Speed
26 28 27 27 26 27 28 29 31 29 30 31 36 36 37 37 37 39 40 41 42 44 45 46 48 50 51 53 54 56 58 60 62 64 65 66 67 69 70 71 73 74 76 76
27 28 29 28 26 28 29 30 32 32 31 32 34 36 38 40 40 41 42 43 44 45 47 48 50 51 53 55 57 59 61 63 64 66 67 68 69 70 72 73 75 76 76 76
28 29 30 29 26 28 29 30 32 33 32 33 35 36 39 40 41 42 44 45 46 47 49 50 52 54 56 57 59 61 63 65 66 67 69 70 71 72 74 75 76 77 76 76
29 30 31 28 27 28 30 31 32 34 34 36 37 38 40 41 42 44 45 46 48 49 51 52 54 56 58 59 61 63 65 66 68 69 70 71 73 74 76 77 77 77 76 76
31 32 32 29 28 29 31 32 32 34 36 37 38 40 41 42 44 45 46 48 50 51 52 54 56 58 59 61 63 65 67 68 69 71 72 73 75 76 77 78 78 77 77 76
32 34 34 30 30 31 33 34 33 35 37 38 40 41 42 44 46 47 48 50 51 52 54 56 58 59 61 63 65 67 68 69 70 72 74 75 76 77 78 78 78 77 76 75
34 36 35 32 33 34 35 37 37 38 39 40 42 43 45 46 48 49 50 51 53 54 55 57 59 61 63 65 66 68 69 71 72 74 75 77 78 78 78 79 78 77 76 74
35 37 35 34 36 37 38 39 40 41 42 43 44 45 47 48 49 50 51 53 54 55 57 59 61 63 65 66 68 69 71 72 73 75 77 78 78 78 79 79 78 76 74 70
35 36 37 38 39 40 41 42 42 43 45 46 47 48 49 50 51 52 53 54 56 57 59 60 62 65 66 68 69 71 72 74 75 76 77 78 78 79 78 78 76 74 70 65
37 37 38 40 41 42 43 44 44 45 47 48 49 50 51 51 52 53 54 56 58 59 60 62 64 66 68 70 71 73 74 75 76 77 78 78 78 78 77 75 73 69 65 59
38 39 40 41 42 43 44 45 46 47 48 49 50 51 51 52 53 54 56 58 59 61 63 64 66 68 70 72 73 74 75 77 77 78 78 78 77 76 74 71 68 65 60 55
39 39 40 41 42 44 45 46 48 49 49 50 51 51 52 53 54 56 58 60 61 63 64 66 68 69 71 73 75 76 77 78 78 78 78 77 76 73 69 65 62 58 55 52
40 40 42 43 44 45 46 47 48 49 50 50 51 52 53 54 56 58 60 62 63 64 66 68 69 71 73 74 76 77 78 78 78 78 77 75 73 70 65 59 55 53 51 49
41 42 43 43 44 45 46 46 47 48 49 50 51 53 54 56 58 60 61 63 64 66 68 69 71 73 75 76 77 78 78 78 78 77 75 72 69 65 61 56 51 48 47 46
41 42 43 43 44 45 46 47 48 49 50 51 53 54 56 58 59 61 62 64 66 67 69 71 73 74 76 77 78 78 77 77 76 74 71 68 64 60 57 54 51 47 44 43
41 42 43 44 45 46 47 47 48 49 51 52 54 56 57 59 60 61 63 66 67 69 71 73 75 76 77 78 78 77 76 75 73 70 66 63 60 57 55 52 49 46 43 41
41 42 43 44 45 46 47 48 49 51 52 54 55 57 58 59 61 63 65 67 69 71 73 75 76 77 78 78 77 76 74 72 69 65 62 59 57 55 52 49 46 43 40 39
42 43 44 45 45 46 47 49 50 51 53 55 56 57 59 60 62 65 67 69 71 72 74 76 77 77 77 76 75 74 71 68 64 61 59 57 55 52 49 46 43 40 37 35
42 43 44 44 45 47 48 49 50 52 54 55 57 58 60 63 65 67 70 71 73 74 75 77 77 77 76 75 73 70 67 64 61 58 56 54 51 49 46 43 39 37 35 34
41 42 43 44 46 47 49 50 52 53 55 56 58 60 63 65 68 70 71 73 75 77 77 77 76 75 74 71 69 66 63 60 58 55 53 51 48 45 42 39 36 35 34 33
42 43 44 46 47 49 50 51 53 54 56 59 61 63 66 68 70 72 74 75 75 77 77 76 75 72 70 66 64 62 60 57 54 52 49 46 43 40 38 35 34 33 33 33
43 45 46 47 49 50 51 53 55 57 59 62 64 67 69 70 72 73 75 77 77 77 75 73 70 68 65 63 61 59 57 54 51 48 45 43 40 37 35 33 33 32 32 31
45 46 47 49 50 52 54 56 58 60 62 65 67 69 71 72 74 76 76 76 76 74 71 68 66 64 62 61 59 57 54 50 46 44 42 39 38 35 34 32 32 31 30 30
47 48 50 51 53 55 56 58 61 63 66 68 70 71 73 74 75 76 76 74 72 69 66 65 63 62 60 58 56 53 49 46 42 40 39 37 36 34 32 31 30 29 28 29
49 51 52 54 56 58 60 62 64 66 68 70 71 73 74 75 76 74 72 70 67 66 64 62 60 59 57 54 50 47 44 41 39 37 36 35 33 32 31 30 29 28 28 28
52 54 56 58 60 62 64 66 68 69 71 72 72 73 74 74 73 71 69 67 65 62 60 58 57 54 51 47 44 41 39 37 36 35 34 33 31 30 29 28 27 27 27 28
55 57 59 61 63 65 67 68 70 71 72 73 73 73 72 71 69 67 66 63 61 58 56 54 51 48 45 43 40 38 36 35 34 33 32 30 29 28 27 27 26 26 26 27

GEFSNGP_500_meanwind_120.txt.gz
Wind_Speed
30 30 30 30 29 30 31 31 33 30 29 27 31 34 34 34 33 34 35 36 37 38 40 41 42 44 45 47 48 50 52 54 55 57 59 60 62 63 65 66 67 68 69 71
30 30 32 31 29 29 30 31 32 32 29 29 33 34 34 34 35 35 36 37 38 40 41 43 44 45 47 48 50 52 54 56 57 59 60 62 63 65 66 67 68 70 71 72
30 30 33 32 28 29 31 31 32 32 30 31 33 34 34 35 36 37 37 38 40 41 43 44 46 47 48 50 52 54 56 57 59 60 62 63 65 66 67 68 70 72 73 74
33 33 35 30 29 30 31 31 32 32 32 32 34 34 35 35 37 38 39 40 41 43 44 46 47 49 50 52 54 56 57 59 60 62 63 65 66 68 69 70 72 73 74 76
35 35 35 31 30 31 32 32 31 33 33 34 34 35 35 37 38 39 41 42 43 44 46 47 49 50 52 54 55 57 59 60 62 64 65 67 68 69 71 72 73 75 76 77
35 36 36 30 30 32 35 34 32 34 35 35 36 36 37 38 40 41 42 43 44 46 47 49 50 52 53 55 56 58 60 62 64 65 67 68 69 71 73 74 76 77 77 78
35 37 36 32 32 34 35 35 35 35 36 36 37 38 39 40 41 42 43 45 46 48 49 50 52 53 54 56 58 60 61 63 65 66 68 70 71 73 75 76 77 78 78 78
36 37 35 34 35 36 36 36 37 37 37 38 39 40 41 42 43 44 45 46 48 49 50 52 53 54 56 58 60 61 63 65 66 68 70 72 74 75 77 78 79 79 78 77
37 36 35 36 37 37 38 38 38 38 39 39 40 41 42 43 45 46 47 48 49 50 51 52 54 56 58 60 61 63 64 66 68 69 71 74 76 77 78 80 80 79 78 77
36 35 36 37 38 39 39 39 40 40 41 41 42 43 44 45 47 48 48 49 50 51 52 54 56 58 60 61 63 65 66 68 69 71 74 76 78 79 80 80 80 79 77 76
37 36 37 38 38 39 39 40 41 42 43 44 45 45 46 47 48 48 49 50 51 52 54 56 58 60 61 63 65 67 68 70 72 74 77 78 79 80 80 79 79 78 76 73
37 37 38 37 38 40 41 41 42 43 45 45 46 47 47 48 48 49 50 51 53 54 56 58 59 61 63 66 68 69 71 73 75 77 78 79 80 79 78 78 77 74 72 69
37 37 38 38 39 40 41 42 43 44 45 46 47 47 48 48 49 50 51 53 55 56 58 59 61 63 66 68 70 72 74 76 77 79 80 80 80 79 77 74 71 68 66 64
37 38 39 39 40 41 42 43 44 45 46 46 47 47 48 49 50 51 53 55 56 57 59 61 63 65 68 70 72 74 76 78 79 80 80 80 79 78 76 72 66 61 60 60
37 38 40 40 41 42 43 44 45 45 45 46 47 48 49 50 51 53 54 56 57 59 61 63 65 68 70 72 74 76 78 80 80 80 79 79 78 75 72 67 63 60 57 56
38 39 40 41 41 42 43 44 44 44 45 46 47 48 50 51 53 54 56 57 59 60 63 65 68 70 73 75 77 79 80 80 80 79 78 77 74 71 66 62 60 59 57 54
38 39 40 40 41 42 42 43 44 45 46 47 48 49 51 52 54 55 57 59 61 63 65 68 71 73 75 77 79 80 80 80 79 78 76 73 70 65 62 60 59 56 54 51
38 39 40 40 41 41 42 43 44 45 46 47 49 50 52 53 55 57 59 61 63 65 68 71 73 75 77 79 81 81 80 79 77 75 72 68 65 62 60 58 56 54 51 48
38 39 39 40 41 42 42 43 44 46 47 49 50 52 53 55 57 59 61 64 66 68 71 74 76 78 79 81 81 80 78 76 73 70 67 64 61 59 57 55 53 51 48 44
39 39 39 40 41 42 43 44 46 48 49 50 52 54 56 58 60 62 64 67 69 72 74 76 78 79 80 81 80 78 75 72 69 66 63 60 58 56 54 52 50 46 43 40
38 39 40 41 42 43 45 46 48 49 51 52 54 56 58 60 63 65 67 69 72 75 77 78 80 80 80 79 77 74 71 68 65 62 59 57 55 52 50 48 45 42 39 37
39 40 41 42 43 45 46 48 49 51 52 54 57 59 61 63 65 68 70 73 75 77 78 80 80 80 79 76 72 69 66 64 61 58 56 53 51 48 46 43 41 38 37 36
40 41 42 44 45 46 48 49 51 53 55 57 59 61 64 66 68 71 72 75 77 78 79 79 78 77 74 71 67 65 62 59 57 54 51 49 47 44 42 40 38 36 35 34
42 43 44 46 47 48 50 52 53 55 57 60 62 65 67 69 71 73 76 77 78 79 78 76 75 72 69 66 63 60 58 55 53 49 47 45 43 41 40 38 36 34 33 32
44 45 47 48 49 50 52 54 56 58 60 62 65 67 70 72 74 75 76 77 77 76 74 72 69 67 64 61 58 55 53 51 48 45 43 41 40 39 37 35 34 33 32 31
46 47 48 50 51 53 55 57 58 60 63 65 67 69 71 73 75 76 76 75 74 72 69 67 65 61 58 55 53 51 48 46 43 42 41 40 38 37 35 33 33 32 31 30
48 49 51 52 54 56 58 59 61 63 66 68 69 71 72 73 74 74 73 71 69 66 64 62 58 55 52 50 48 46 44 42 41 40 39 37 36 34 33 32 31 30 29 29

GEFSNGP_500_meanwind_126.txt.gz
Wind_Speed
34 34 35 35 35 35 36 37 38 36 35 30 32 35 36 36 36 36 36 37 37 38 39 41 41 42 44 45 46 47 48 50 51 52 54 55 56 58 60 61 63 64 66 68
36 35 36 37 36 36 37 37 37 37 35 32 35 36 37 37 37 37 38 38 39 40 41 41 42 44 45 46 47 49 50 51 53 54 55 57 58 60 62 63 65 67 68 69
36 35 38 38 33 34 36 36 37 38 36 35 36 36 37 38 38 39 39 40 40 41 42 42 43 44 46 47 49 50 52 53 55 56 57 59 60 62 64 65 67 68 69 70
38 38 40 35 33 34 35 35 36 37 36 36 36 37 37 38 39 40 40 41 41 42 42 43 44 46 47 49 50 52 53 55 56 58 59 61 62 64 66 67 68 69 70 72
40 40 40 35 33 34 36 36 34 36 36 37 37 37 37 38 39 40 41 41 42 42 43 44 46 47 49 50 52 53 55 57 58 59 61 63 64 66 67 68 69 71 73 74
40 41 40 34 33 34 36 36 34 35 36 36 37 37 37 39 40 40 41 42 42 43 45 46 48 49 51 52 53 55 57 58 59 61 63 64 65 67 68 70 71 73 75 77
39 41 39 35 35 35 36 35 35 35 35 36 37 38 39 40 40 41 42 43 44 45 47 48 49 51 52 54 55 57 58 59 61 62 64 65 67 69 70 72 74 76 77 78
39 40 38 36 36 36 36 36 36 36 36 37 37 39 39 40 41 42 43 45 46 47 48 49 50 52 53 55 57 58 59 60 61 63 65 67 69 71 73 75 77 78 79 79
39 38 37 38 38 38 37 37 37 37 37 37 38 39 40 41 41 43 44 46 47 48 50 51 52 54 55 57 58 59 60 61 63 65 67 69 71 73 75 78 79 80 81 81
39 37 38 38 39 39 38 38 38 39 39 39 40 41 42 42 44 45 46 47 48 49 50 52 53 55 57 58 59 59 61 63 65 67 69 71 73 75 78 79 80 81 81 80
38 37 38 38 38 38 39 39 40 40 41 41 42 42 43 44 45 46 47 48 49 50 52 53 55 56 57 58 59 61 63 65 67 69 71 73 75 78 79 80 81 82 81 80
37 36 37 37 37 38 40 40 41 42 43 43 43 44 44 45 46 47 48 49 50 51 53 54 55 56 58 59 61 63 65 67 70 72 74 76 78 79 80 80 80 80 80 80
38 37 38 38 38 39 40 41 42 43 43 44 44 45 45 46 47 48 49 50 51 52 53 54 56 57 59 61 63 65 68 70 72 75 77 79 80 81 80 79 77 77 77 76
39 40 40 40 40 41 42 43 43 44 44 44 45 45 46 47 48 49 50 51 52 53 54 56 57 59 61 63 65 68 70 73 75 77 79 81 81 81 81 79 76 74 73 71
39 41 41 41 41 42 43 43 44 44 44 45 46 46 47 48 49 50 51 52 52 54 56 58 59 61 63 65 68 70 73 76 78 80 81 82 81 80 79 77 76 73 69 65
40 41 41 42 42 43 43 43 43 43 44 45 46 47 48 49 49 50 51 53 54 56 58 60 61 63 65 68 71 74 76 78 80 81 82 81 80 79 77 75 73 70 65 62
40 40 41 41 42 42 42 42 43 43 44 45 47 47 48 49 50 51 53 55 56 58 60 61 63 66 68 72 74 77 78 80 81 82 81 80 78 76 74 72 68 64 61 59
40 40 40 41 41 41 42 42 43 44 45 46 46 47 48 49 51 53 54 56 58 59 62 64 66 69 72 75 77 79 80 81 82 81 79 77 75 73 71 67 64 61 58 56
39 40 40 40 41 41 42 42 43 44 45 46 47 48 49 51 52 54 56 57 59 61 64 67 69 72 75 78 79 80 82 81 80 78 77 75 72 69 66 63 60 58 55 53
39 40 40 40 41 41 42 43 43 44 45 47 48 49 50 52 54 56 57 60 62 65 67 69 72 75 77 79 80 81 81 80 78 76 74 72 68 64 61 59 57 54 52 50
39 39 40 41 41 42 43 43 44 45 46 48 49 50 52 54 56 58 60 62 65 67 70 72 75 78 79 80 81 81 79 76 74 73 70 67 63 60 57 55 53 51 49 47
38 39 40 40 41 42 43 44 45 46 48 49 51 52 54 56 58 60 63 65 67 70 72 75 78 80 80 81 80 77 74 73 71 69 65 61 58 56 53 51 49 47 46 44
39 39 40 40 41 42 43 45 46 48 49 51 53 54 56 58 61 63 65 67 70 72 75 78 80 80 79 78 75 72 71 69 66 62 58 56 54 52 49 47 46 45 44 43
39 40 40 41 42 44 45 46 48 49 51 53 55 57 59 61 63 66 68 70 72 75 78 79 78 76 75 72 70 68 66 63 59 56 53 51 50 48 46 45 44 43 43 42
41 41 42 43 44 45 47 48 50 51 53 55 57 59 62 64 65 67 70 72 74 77 77 75 73 71 69 67 65 62 59 56 53 51 49 47 46 45 44 43 43 42 41 39
42 43 44 45 46 48 49 50 52 53 55 57 59 61 63 65 67 70 72 73 75 74 72 69 67 66 64 61 59 56 53 51 49 47 46 45 44 43 42 42 41 39 38 36
44 45 46 47 49 50 51 52 53 55 57 59 61 63 65 67 69 71 72 71 71 69 66 64 63 61 58 56 53 51 49 48 46 45 44 43 42 41 40 39 37 36 34 33